Date String (YYYY-MM-DD hh:mm:ss) UTC,Instrument flags,absolute air pressure of the measurement (hPa),sample flow rate (lpm),inlet stack bypass flow (lpm),air temperature of the measurement (°C),ambient temperature measured by the external sensor (°C),aerosol sample conditioner tube jacket temperature (°C),OPC LED temperature (°C),internal box temperature (°C),relative humidity of the measurement (%),span deviation,mass concentration of particles derived from Lorenz-Mie calculation of OPC scattering (μg/m³),mass concentration of particles derived from Lorenz-Mie calculation of OPC scattering (μg/m³),mass concentration of particles derived from Lorenz-Mie calculation of OPC scattering (μg/m³)
DateTimeUTC,F1_M11,P_M11,Q1_M11,Q2_M11,T1_M11,T2_M11,T3_M11,T4_M11,T5_M11,U1_M11,ZSPAN_M11,X2_M11,X0_M11,X1_M11
2024-05-21 23:00:00,SystemResetWarning,0825.3,5.00,000.00,028.0,027.2,000.0,036.5,029.7,021.7,0000.0,0005.44,0008.34,0004.97
2024-05-21 23:01:00,SystemResetWarning,0825.3,4.99,000.00,028.0,027.2,000.0,036.5,029.7,021.8,0000.0,0005.42,0008.29,0004.94
2024-05-21 23:02:00,SystemResetWarning,0825.3,5.00,000.00,027.9,027.2,000.0,036.5,029.7,021.8,0000.1,0005.40,0008.25,0004.91
2024-05-21 23:03:00,SystemResetWarning,0825.3,5.00,000.00,027.9,027.2,000.0,036.5,029.7,022.2,0000.8,0005.36,0008.24,0004.89
2024-05-21 23:04:00,SystemResetWarning,0825.2,4.99,000.00,027.9,027.2,000.0,036.5,029.7,022.3,0001.3,0005.33,0008.45,0004.86
2024-05-21 23:05:00,SystemResetWarning,0825.2,5.00,000.00,027.9,027.1,000.0,036.4,029.6,022.9,0001.0,0005.31,0008.63,0004.81
2024-05-21 23:06:00,SystemResetWarning,0825.2,5.00,000.00,027.9,027.1,000.0,036.4,029.6,022.7,0000.9,0005.27,0009.35,0004.75
2024-05-21 23:07:00,SystemResetWarning,0825.3,5.01,000.00,027.8,027.0,000.0,036.4,029.5,022.7,0000.3,0005.18,0009.57,0004.68
2024-05-21 23:08:00,SystemResetWarning,0825.2,5.01,000.00,027.8,027.0,000.0,036.4,029.4,022.8,0001.1,0005.12,0009.54,0004.63
2024-05-21 23:09:00,SystemResetWarning,0825.2,5.00,000.00,027.8,027.0,000.0,036.4,029.4,022.5,0001.2,0005.06,0009.51,0004.57
2024-05-21 23:10:00,SystemResetWarning,0825.2,5.00,000.00,027.7,026.9,000.0,036.4,029.4,022.7,0001.0,0004.97,0009.34,0004.51
2024-05-21 23:11:00,SystemResetWarning,0825.1,5.00,000.00,027.7,026.9,000.0,036.3,029.3,022.3,0000.0,0004.92,0009.28,0004.46
2024-05-21 23:12:00,SystemResetWarning,0825.1,4.99,000.00,027.7,026.8,000.0,036.3,029.3,022.1,0000.0,0004.85,0009.19,0004.41
2024-05-21 23:13:00,SystemResetWarning,0825.2,5.00,000.00,027.6,026.8,000.0,036.3,029.2,022.2,0000.0,0004.78,0009.12,0004.36
2024-05-21 23:14:00,SystemResetWarning,0825.3,5.02,000.00,027.6,026.8,000.0,036.3,029.2,022.1,0000.0,0004.72,0009.01,0004.30
2024-05-21 23:15:00,SystemResetWarning,0825.2,5.01,000.00,027.6,026.7,000.0,036.2,029.2,022.2,0000.0,0004.64,0008.81,0004.25
2024-05-21 23:16:00,SystemResetWarning,0825.3,4.99,000.00,027.5,026.7,000.0,036.2,029.2,022.4,0000.0,0004.53,0009.05,0004.20
2024-05-21 23:17:00,SystemResetWarning,0825.3,4.99,000.00,027.5,026.7,000.0,036.2,029.2,022.0,0000.0,0004.46,0008.22,0004.17
2024-05-21 23:18:00,SystemResetWarning,0825.3,5.00,000.00,027.5,026.6,000.0,036.1,029.1,022.0,0000.0,0004.44,0007.86,0004.15
2024-05-21 23:19:00,SystemResetWarning,0825.3,5.01,000.00,027.5,026.6,000.0,036.1,029.1,021.7,0000.0,0004.42,0007.77,0004.13
2024-05-21 23:20:00,SystemResetWarning,0825.4,5.01,000.00,027.4,026.6,000.0,036.1,029.1,021.9,0000.0,0004.41,0007.77,0004.12
2024-05-21 23:21:00,SystemResetWarning,0825.4,4.99,000.00,027.4,026.6,000.0,036.1,029.1,022.1,0000.0,0004.41,0007.82,0004.10
2024-05-21 23:22:00,SystemResetWarning,0825.5,5.00,000.00,027.4,026.6,000.0,036.1,029.1,021.7,0000.0,0004.38,0007.78,0004.08
2024-05-21 23:23:00,SystemResetWarning,0825.6,5.00,000.00,027.4,026.6,000.0,036.1,029.2,021.6,0000.0,0004.34,0007.73,0004.05
2024-05-21 23:24:00,SystemResetWarning,0825.6,5.00,000.00,027.5,026.7,000.0,036.1,029.2,022.1,0000.0,0004.31,0007.67,0004.03
2024-05-21 23:25:00,SystemResetWarning,0825.6,5.00,000.00,027.5,026.7,000.0,036.1,029.2,021.7,0000.0,0004.28,0007.62,0004.01
2024-05-21 23:26:00,SystemResetWarning,0825.6,5.00,000.00,027.5,026.7,000.0,036.1,029.2,021.9,0000.0,0004.25,0007.54,0003.98
2024-05-21 23:27:00,SystemResetWarning,0825.6,5.00,000.00,027.5,026.7,000.0,036.1,029.2,022.2,0000.0,0004.22,0006.48,0003.95
2024-05-21 23:28:00,SystemResetWarning,0825.6,5.00,000.00,027.5,026.7,000.0,036.1,029.3,021.9,0000.0,0004.20,0006.33,0003.94
2024-05-21 23:29:00,SystemResetWarning,0825.6,5.00,000.00,027.5,026.7,000.0,036.1,029.3,022.2,0000.0,0004.21,0007.73,0003.92
2024-05-21 23:30:00,SystemResetWarning,0825.7,5.01,000.00,027.5,026.7,000.0,036.1,029.3,022.2,0000.0,0004.19,0007.70,0003.91
2024-05-21 23:31:00,SystemResetWarning,0825.7,5.00,000.00,027.5,026.8,000.0,036.1,029.3,021.8,0000.0,0004.18,0008.22,0003.89
2024-05-21 23:32:00,SystemResetWarning,0825.7,5.00,000.00,027.5,026.8,000.0,036.1,029.3,021.6,0000.0,0004.13,0008.71,0003.86
2024-05-21 23:33:00,SystemResetWarning,0825.8,5.00,000.00,027.5,026.8,000.0,036.1,029.3,021.4,0000.0,0004.09,0009.14,0003.83
2024-05-21 23:34:00,SystemResetWarning,0825.8,5.00,000.00,027.5,026.7,000.0,036.0,029.2,021.3,0000.0,0004.08,0009.12,0003.82
2024-05-21 23:35:00,SystemResetWarning,0825.8,5.00,000.00,027.5,026.7,000.0,036.0,029.2,021.5,0000.0,0004.07,0009.16,0003.80
2024-05-21 23:36:00,SystemResetWarning,0825.9,5.01,000.00,027.5,026.7,000.0,036.0,029.2,021.6,0000.0,0004.07,0009.26,0003.78
2024-05-21 23:37:00,SystemResetWarning,0825.9,5.00,000.00,027.4,026.7,000.0,036.0,029.1,021.4,0000.0,0004.04,0009.23,0003.77
2024-05-21 23:38:00,SystemResetWarning,0825.9,5.00,000.00,027.4,026.6,000.0,036.0,029.1,021.5,0000.0,0004.03,0009.17,0003.76
2024-05-21 23:39:00,SystemResetWarning,0825.9,5.00,000.00,027.4,026.6,000.0,036.0,029.1,021.6,0000.0,0004.05,0009.23,0003.76
2024-05-21 23:40:00,SystemResetWarning,0825.9,5.00,000.00,027.4,026.6,000.0,036.0,029.1,021.6,0000.0,0004.04,0008.91,0003.74
2024-05-21 23:41:00,SystemResetWarning,0825.9,5.00,000.00,027.4,026.6,000.0,036.0,029.1,021.9,0000.0,0004.02,0008.35,0003.72
2024-05-21 23:42:00,SystemResetWarning,0826.1,5.00,000.00,027.4,026.6,000.0,036.0,029.2,022.2,0000.0,0003.99,0008.04,0003.69
2024-05-21 23:43:00,SystemResetWarning,0826.2,5.00,000.00,027.4,026.6,000.0,036.0,029.2,021.8,0000.0,0003.96,0007.36,0003.66
2024-05-21 23:44:00,SystemResetWarning,0826.2,5.00,000.00,027.4,026.7,000.0,036.0,029.2,021.8,0000.0,0003.94,0006.45,0003.65
2024-05-21 23:45:00,SystemResetWarning,0826.3,5.01,000.00,027.4,026.7,000.0,036.0,029.2,021.8,0000.0,0003.96,0006.68,0003.64
2024-05-21 23:46:00,SystemResetWarning,0826.4,5.00,000.00,027.4,026.6,000.0,036.0,029.2,021.8,0000.0,0003.93,0006.59,0003.63
2024-05-21 23:47:00,SystemResetWarning,0826.6,5.00,000.00,027.4,026.6,000.0,036.0,029.2,021.8,0000.0,0003.90,0006.30,0003.62
2024-05-21 23:48:00,SystemResetWarning,0826.6,4.99,000.00,027.4,026.6,000.0,036.0,029.2,022.2,0000.0,0003.90,0006.68,0003.61
2024-05-21 23:49:00,SystemResetWarning,0826.6,4.99,000.00,027.4,026.6,000.0,036.0,029.1,022.4,0000.0,0003.92,0006.86,0003.60
2024-05-21 23:50:00,SystemResetWarning,0826.6,4.99,000.00,027.4,026.7,000.0,035.9,029.2,022.5,0000.0,0003.93,0007.30,0003.58
2024-05-21 23:51:00,SystemResetWarning,0826.6,5.00,000.00,027.4,026.7,000.0,035.9,029.2,022.6,0000.0,0003.93,0007.26,0003.60
2024-05-21 23:52:00,SystemResetWarning,0826.6,5.00,000.00,027.4,026.7,000.0,035.9,029.2,022.6,0000.0,0003.97,0007.55,0003.64
2024-05-21 23:53:00,SystemResetWarning,0826.6,5.01,000.00,027.4,026.7,000.0,035.9,029.3,022.2,0000.0,0004.02,0007.58,0003.68
2024-05-21 23:54:00,SystemResetWarning,0826.6,5.00,000.00,027.4,026.7,000.0,035.9,029.3,022.0,0000.0,0004.07,0007.89,0003.72
2024-05-21 23:55:00,SystemResetWarning,0826.7,5.01,000.00,027.4,026.7,000.0,035.9,029.2,022.2,0000.0,0004.15,0009.07,0003.76
2024-05-21 23:56:00,SystemResetWarning,0826.7,5.00,000.00,027.4,026.7,000.0,035.9,029.3,021.3,0000.0,0004.17,0009.38,0003.79
2024-05-21 23:57:00,SystemResetWarning,0826.7,5.00,000.00,027.4,026.7,000.0,035.9,029.3,016.7,0000.0,0004.18,0009.70,0003.78
2024-05-21 23:58:00,SystemResetWarning,0826.6,4.99,000.00,027.5,026.7,000.0,035.9,029.3,014.6,0000.0,0004.08,0009.82,0003.67
2024-05-21 23:59:00,SystemResetWarning,0826.6,4.99,000.00,027.5,026.7,000.0,035.9,029.3,014.0,0000.0,0003.97,0009.52,0003.56
